Torna al catalogo

STARLINK-36181

AttivoComunicazioniVLEO
NORAD 68047·PAYLOAD·🇺🇸 United States

Lanciato Mar 2, 2026 da Vandenberg Space Force Base

Loading…

Prossimi Passaggi (prossime 24 ore)

TLE

AggiornatoSource: CelesTrak SupGP

Epoca: Sep 14, 2026, 23:24 UTC

1 68047C 26041H   26257.97548611  .00020559  00000+0  60733-3 0  2570
2 68047  53.1578 247.2137 0001417  99.4855  31.8663 15.34385006    18

Traccia STARLINK-36181 in tempo reale con AllMySat

Download on the App Store